Regional Weather Roundup
Issued by NWS Wakefield, VA

Home | Current Version | Previous Version | Graphics & Text | Print | Product List | Glossary On
Versions: 1 2 3 4 5 6 7 8 9 10 11 12 13 14 15 16 17 18 19 20 21 22 23 24 25 26 27 28
000
ASUS41 KAKQ 260415
RWRAKQ

REGIONAL WEATHER ROUNDUP
NATIONAL WEATHER SERVICE WAKEFIELD VA
1200 AM EDT SUN MAR 26 2017

Note: "fair" indicates few or no clouds below 12,000 feet with no
significant weather and/or obstructions to visibility. * = Denotes
station may not report precipitation (e.g., rain,snow,etc.),
thunder or fog.

VAZ042-051-052>054-056-260500-
NORTHERN VIRGINIA

CITY           SKY/WX    TMP DP  RH WIND       PRES   REMARKS
WASH NATIONAL  MOCLDY    60  50  69 NE22      30.21R
DULLES         CLOUDY    66  51  58 E10       30.18R
FORT BELVOIR   CLOUDY    61  52  71 CALM      30.18R
QUANTICO       CLOUDY    60  51  72 S6        30.19S
FREDERICKSBRG* CLOUDY    66  53  63 SW6       30.17S
STAFFORD*      PTCLDY    65  51  60 CALM      30.21F
WARRENTON      CLOUDY    68  47  47 S3        30.17S
CULPEPER*      CLOUDY    68  52  55 S3        30.18S
MANASSAS*        N/A     63  51  65 S3        30.17F
LEESBURG*      CLOUDY    68  54  60 SE9G17    30.18S
WINCHESTER     PTCLDY    59  50  72 CALM      30.16S
FRONT ROYAL*   MOCLDY    64  52  63 SW5       30.14S
LURAY*         CLOUDY    59  54  82 CALM      30.16F
$$

VAZ048-049-060>072-079>083-260500-
CENTRAL AND SOUTH CENTRAL VIRGINIA

CITY           SKY/WX    TMP DP  RH WIND       PRES   REMARKS
RICHMOND       CLOUDY    62  52  69 S6        30.19F
CHESTERFIELD*  FAIR     N/A N/A N/A S5        30.21F
PETERSBURG*    CLOUDY    53  49  87 CALM      30.21S
HANOVER        CLOUDY    64  50  60 S6        30.20F
TAPPAHANNOCK*  CLOUDY    64  39  39 S3        30.20S
QUINTON*       FAIR      62  53  71 MISG      30.20S
CHARLOTTSVILLE CLOUDY    65  50  58 S8        30.17S
GORDONSVILLE*  PTCLDY    62  51  69 CALM      30.17S
ORANGE*        PTCLDY    63  50  63 CALM      30.19S
LOUISA*        CLOUDY    70  54  56 S5        30.17F
BUMPASS*       FAIR      65  51  61 S5        30.18F
FARMVILLE*     CLOUDY    62  52  71 CALM      30.18S
CREWE*         FAIR      57  54  88 CALM      30.19F
FORT PICKETT*  FAIR      60  46  61 SE5       30.20S
CHASE CITY*    FAIR      61  48  64 CALM      30.20S
CLARKSVILLE*   FAIR      59  50  72 S5        30.20S
SOUTH HILL*    PTCLDY    60  52  74 S6        30.26S
LAWRENCEVILLE* FAIR      61  50  67 S3        30.21S
EMPORIA*       MOCLDY    61  50  67 SE5       30.23S
$$

VAZ088>098-260500-
SOUTHEAST VIRGINIA

CITY           SKY/WX    TMP DP  RH WIND       PRES   REMARKS
NORFOLK        CLOUDY    63  51  65 S9        30.22S
VIRGINIA BEACH CLOUDY    63  50  62 S9        30.22F
NORFOLK NAVAL  CLOUDY    65  51  60 S8        30.23S
WEST POINT*    MOCLDY    61  50  68 CALM      30.22S
SALUDA*        FAIR      65  53  63 S5        30.20S
NEWPORT NEWS   CLOUDY    64  51  62 S10       30.22S
LANGLEY AFB    MOCLDY    64  53  66 S9        30.21S
FORT EUSTIS    MOCLDY    62  51  68 S6        30.19S
WILLIAMSBURG*  MOCLDY    61  54  77 CALM      30.22S
HR EXEC AP*    FAIR      63  50  63 S7        30.21S
FRANKLIN*      CLOUDY    63  51  66 S7        30.23S
US460-WAKEFLD  CLOUDY    61  52  72 S5        30.22S
$$

VAZ020-022-025-037-045-260500-
WEST CENTRAL AND SOUTHWEST VIRGINIA

CITY           SKY/WX    TMP DP  RH WIND       PRES   REMARKS
STAUNTON*      CLOUDY    58  49  74 CALM      30.20S
WAYNESBORO*    MOCLDY    61  51  68 CALM      30.19S
HOT SPRINGS VA CLEAR     54  43  66 S6        30.23F
LYNCHBURG      CLOUDY    54  48  80 CALM      30.20F
DANVILLE       CLOUDY    61  49  64 S3        30.20S
SOUTH BOSTON*  FAIR      62  48  60 S3        30.20S
MARTINSVILLE   PTCLDY    50  45  83 CALM      30.22S
ROANOKE        CLOUDY    63  47  55 CALM      30.20F
BLACKSBURG     CLEAR     57  47  69 CALM      30.24S
DUBLIN*        CLEAR     57  47  69 S6        30.21F
MARION*        CLEAR     59  47  63 CALM      30.22F
HILLSVILLE*    CLEAR     55  47  73 CALM      30.21S
RICHLANDS*     FAIR      59  45  60 CALM      30.17F
WISE*          CLEAR     59  43  55 CALM      30.16S
ABINGDON*      CLEAR     59  45  59 CALM      30.16F
$$

MDZ021>025-VAZ099-100-260500-
SOUTHERN MARYLAND AND THE DELMARVA PENINSULA

CITY           SKY/WX    TMP DP  RH WIND       PRES   REMARKS
PATUXENT RIVER PTCLDY    51  50  96 NE7       30.20R
BAY BRIDGE APT CLOUDY    52  45  76 E16G24    30.25R
LEONARDTOWN    PTCLDY    57  50  77 CALM      30.21S
DOVER          CLOUDY    47  47 100 NE14      30.28S
GEORGETOWN     MOCLDY    47  42  83 NE13      30.28R
EASTON         MOCLDY    51  41  69 E13G18    30.29S
CAMBRIDGE      CLEAR     50  45  81 NE10      30.24S
SALISBURY      PTCLDY    49  45  86 NE8       30.24R
OCEAN CITY     PTCLDY    48  44  86 N8        30.25R
WALLOPS ISLAND PTCLDY    51  48  89 CALM      30.23R
ACCOMACK*      PTCLDY    59  51  73 S7        30.22R
$$

NCZ012>017-030>032-260500-
NORTH CENTRAL AND EASTERN NORTH CAROLINA

CITY           SKY/WX    TMP DP  RH WIND       PRES   REMARKS
ROANOKE RAPIDS FAIR      63  52  67 S7        30.23S
RALEIGH        CLOUDY    64  50  60 S12G17    30.23S
ELIZABETH CITY PTCLDY    60  52  74 SW10      30.25S
AHOSKIE*         N/A     61  52  72 S3        30.24S
EDENTON*       PTCLDY    62  54  75 CALM      30.25F
CURRITUCK*     PTCLDY    62  52  69 SW5       30.25S
KILL DEVIL HLS NOT AVBL
MANTEO         PTCLDY    56  52  85 SW5       30.27S
CAPE HATTERAS  PTCLDY    63  55  75 W5        30.28S HAZE
TARBORO*       NOT AVBL
GOLDSBORO      MOCLDY    62  55  79 CALM      30.24S
WASHINGTON     CLOUDY    60  54  79 S3        30.26F
GREENVILLE     MOCLDY    63  55  77 S8        30.26S
NEW BERN       CLOUDY    56  54  93 CALM      30.28S
WILMINGTON     CLOUDY    61  56  83 SE3       30.26S
$$

VAZ048-260500-
ELSEWHERE

CITY           SKY/WX    TMP DP  RH WIND       PRES   REMARKS
HARRISBURG PA  MOCLDY    53  43  68 E13       30.27S
BALTIMORE      CLOUDY    53  47  79 NE17      30.26R
ANNAPOLIS      CLOUDY    54  46  74 E8        30.25S
ANDREWS AFB    CLOUDY    58  47  67 E15       30.21R
PHILADELPHIA   PTCLDY    44  39  82 E13       30.35R
HENDERSON NC   CLOUDY    59  47  66 S6        30.22S
GREENSBORO     PTCLDY    60  49  66 S7        30.20S
ROCKY MOUNT    CLOUDY    61  53  75 S6        30.24S
$$

VAZ100-260500-
MARINE

STATION/POSITION TIME  TEMP    WIND        PRES    WAVE   SWELL
                       AIR SEA DIR/SP/G            HT/PER HT/PER
                 (UTC) (F)     (DEG/KT/KT) (MB)    (FT/S) (FT/S)
CAPE MAY NJ      0348   46 44   80/ 13/ 19 1024.7F
LEWES DE         0348      47   80/ 19/ 21 1025.0F
OCEAN-CITY-INLET 0348   47 44   30/  7/ 11 1024.7R
WACHAPREAGUE VA  0348   57 57  210/  5/  7 1023.0S
THOMAS POINT MD  0400   51 45   60/ 14/ 16   N/A
GOOSES REEF MD   0400   51 46  110/ 12/ 17 1023.7    1/ 2
COVE POINT MD    0348   57     160/  3/  7 1023.4R
SOLOMONS ISLAND  0348          100/  7/  8   N/A
BISHOPS HEAD MD  0348   55 53   50/  5/  7 1023.3R
PINEY POINT MD   0348          110/  5/  5   N/A
POTOMAC MD       0400   53 47  130/  4/  4 1021.8    0
CAMBRIDGE MD     0348   50 47   70/ 12/ 15 1023.4R
LEWISETTA VA     0348   66 48  230/  4/  5 1022.1R
RAPPAHANNOCK LGT 0348          160/ 11/ 12 1023.6R
STINGRAY PT      0350   52     190/  6/  8 1022.7S
YORK RVR RNG VA  0348   60     190/ 14/ 15 1022.4S
YORKTOWN VA      0348   65 50  180/  6/  9 1022.7S
JAMESTOWN VA     0400   60 52  180/  6/  8   N/A     0
DOMINION TERM VA 0348   58     200/  9/ 10 1023.3F
KIPTOPEKE VA     0348      48  150/  6/  7   N/A
CHES BAY BRIDGE  0348   64 48  200/ 11/ 13 1023.3S
CAPE HENRY VA    0348   64     190/  8/ 12   N/A
WILLOUBY STN VA  0348   65     190/ 12/ 13 1024.2S
S CRANEY ISL VA  0348   62     200/  7/  9 1023.2F
CAPE HENRY BUOY  0342      49                N/A     2/20
CAPE CHARLES BUO 0351      47                N/A     2/12
OFFSHORE WE BUOY 0351      49                N/A     2/ 7
64NM E OF VA BCH 0350   53 49  210/ 10/ 12 1024.6R   3/ 7   2/ 7
DUCK PIER NC     0348   62 49  200/ 10/ 13 1023.9F
44100 DUCK FRF   0335      49                N/A     2/ 9
44056 DUCK FRF   0330      49                N/A     1/10
OREGON INLET NC  0348          210/  9/ 11   N/A
HATTERAS NC      0348   61 58  240/  5/  5 1024.9F
DIAMOND SHLS NC  0350   69 76  180/ 16/ 19 1025.2F   3/ 5   2/ 8
CAPE LOOKOUT NC  0300   67     190/ 10/ 10 1025.0S
$$




USA.gov is the U.S. government's official web portal to all federal, state and local government web resources and services.